Temp
16 15 15 15 15 13 11 11 11 11 10 9 8 8 8 9 8 9 8 7 6 5
15 15 14 14 12 11 11 10 10 9 9 8 8 7 8 8 7 7 7 6 5 5
14 13 13 12 11 10 10 10 9 8 7 7 7 7 7 7 7 6 6 5 4 3
13 12 12 11 10 9 9 8 7 7 7 7 7 7 7 6 6 5 5 4 3 2
12 11 10 9 8 9 7 6 6 6 6 6 6 6 5 5 5 4 4 3 2 1
11 10 9 9 8 6 6 6 5 6 6 6 6 5 5 4 4 3 3 2 1 1
9 8 7 7 5 5 5 4 6 5 5 5 5 5 3 3 3 2 2 1 0 -1
7 6 4 4 4 4 4 4 5 5 4 4 4 3 3 3 2 1 1 0 -0 -1
4 4 3 4 3 3 3 4 4 4 4 4 2 3 2 2 1 1 0 -0 -1 -2
2 1 2 2 3 3 3 4 4 3 2 2 2 2 1 1 0 0 -0 -1 -2 -3
0 1 1 2 2 3 3 3 3 2 2 2 2 1 1 0 -0 -0 -1 -2 -3 -4
0 -1 2 3 3 3 2 3 2 2 2 1 1 0 0 0 -0 -1 -2 -3 -4 -5
-1 1 2 2 2 2 1 1 2 1 1 0 -0 -1 -1 -1 -2 -4 -3 -3 -4 -6
0 -0 1 2 1 0 1 1 1 0 -0 -1 -1 -1 -3 -4 -5 -6 -6 -6 -6 -7
Height
1445 1452 1456 1460 1462 1465 1469 1473 1478 1483 1488 1491 1496 1500 1502 1503 1504 1503 1504 1504 1504 1503
1438 1445 1451 1456 1460 1463 1466 1470 1475 1479 1484 1488 1493 1497 1500 1500 1501 1502 1501 1500 1501 1500
1434 1440 1446 1451 1455 1460 1466 1468 1471 1476 1481 1486 1490 1494 1496 1497 1497 1499 1497 1497 1497 1496
1430 1436 1440 1445 1452 1458 1463 1466 1470 1474 1479 1484 1488 1490 1493 1495 1494 1494 1493 1493 1493 1492
1428 1432 1435 1440 1448 1454 1459 1464 1469 1472 1478 1483 1487 1489 1491 1492 1491 1491 1490 1490 1489 1488
1423 1430 1435 1438 1444 1451 1457 1463 1467 1472 1477 1482 1485 1486 1488 1489 1488 1488 1486 1486 1484 1483
1421 1426 1432 1436 1442 1450 1457 1462 1467 1472 1477 1481 1482 1484 1485 1486 1486 1485 1483 1482 1480 1478
1420 1424 1431 1436 1443 1449 1457 1462 1467 1472 1476 1479 1480 1482 1482 1482 1483 1481 1480 1478 1476 1473
1420 1424 1432 1437 1444 1450 1458 1463 1467 1472 1475 1478 1480 1479 1479 1480 1479 1477 1475 1473 1471 1467
1420 1425 1435 1440 1447 1452 1457 1464 1466 1470 1474 1477 1477 1476 1476 1476 1475 1473 1470 1468 1464 1461
1422 1434 1440 1443 1455 1456 1460 1463 1468 1471 1473 1474 1473 1473 1473 1472 1470 1468 1466 1463 1459 1455
1433 1439 1443 1453 1457 1455 1460 1465 1469 1470 1471 1470 1470 1470 1469 1468 1466 1464 1461 1458 1455 1451
1434 1447 1450 1455 1457 1460 1464 1467 1468 1469 1468 1468 1468 1467 1465 1463 1460 1459 1456 1453 1449 1445
1448 1450 1456 1455 1457 1461 1464 1466 1466 1466 1466 1466 1465 1464 1462 1460 1457 1454 1450 1446 1443 1439
Wind_Speed
44 44 43 44 45 41 37 34 30 27 28 25 22 18 16 13 11 10 8 8 9 10
41 40 38 40 38 36 35 30 30 28 28 25 20 16 14 12 8 8 8 9 11 12
36 35 35 33 33 33 31 32 32 29 25 20 18 16 13 10 9 9 8 10 12 13
32 33 32 31 30 30 33 32 30 26 23 21 19 15 12 10 8 8 9 11 13 15
31 32 31 28 29 35 34 32 28 25 23 19 15 12 7 7 7 8 10 12 14 16
32 31 28 29 35 35 34 30 27 24 20 17 11 7 7 7 7 9 11 13 15 17
30 30 31 34 35 33 31 28 26 21 16 12 8 8 6 6 8 10 12 15 17 19
30 30 34 36 37 33 30 26 20 17 14 9 6 6 4 7 10 12 13 15 17 19
33 35 39 38 34 31 27 23 19 13 9 7 6 3 5 8 11 13 15 17 18 19
37 40 38 35 31 28 24 20 15 11 8 5 2 4 8 10 12 14 17 19 20 20
37 35 32 29 27 24 18 12 10 8 5 2 4 7 9 11 14 16 18 19 19 21
32 30 31 26 20 16 15 12 8 4 1 4 6 9 11 14 16 17 17 18 19 22
31 29 24 22 20 17 12 7 4 2 2 5 7 10 14 19 20 19 20 22 24 24
23 22 22 19 14 10 7 5 2 2 5 7 9 12 15 16 17 21 24 27 27 25
Wind_Direction
224 227 228 227 227 221 218 217 218 221 210 209 208 213 218 219 234 253 265 274 283 289
225 227 232 227 223 219 214 210 212 205 204 202 205 208 213 225 239 256 266 279 287 291
225 221 223 225 221 214 209 204 198 198 197 198 196 202 216 225 246 257 278 288 294 298
219 217 220 223 213 205 206 199 194 189 183 192 195 200 215 226 245 269 289 296 298 299
217 216 215 207 200 201 196 191 185 181 180 186 193 202 218 242 264 282 295 295 298 300
212 213 201 197 195 190 185 180 174 178 179 186 189 198 232 258 284 294 299 299 302 302
202 196 194 189 183 179 177 171 170 171 175 181 193 220 233 276 291 299 303 304 304 301
191 185 181 173 173 172 169 169 165 168 170 186 207 215 267 295 300 304 305 304 303 302
178 175 172 170 167 160 160 158 159 160 180 189 196 251 293 300 304 309 312 313 309 307
170 167 166 157 158 153 154 153 157 171 176 186 238 303 305 306 312 318 319 316 313 310
162 158 151 146 150 146 153 148 153 158 175 240 305 305 314 316 319 322 320 317 315 313
153 145 142 150 155 148 147 148 152 148 244 307 318 318 318 322 323 324 324 323 320 321
142 153 149 147 145 138 136 134 163 198 326 324 327 329 328 327 329 327 324 325 327 324
142 143 146 136 132 127 131 158 140 351 338 334 331 329 328 325 325 323 322 322 321 321